Location: Unspecified
(41.5000°N, 0.0000°E)
Time: 06:10:44
(UTC+00:00)

deb Explorer IX - Pass Details

Date: 22 June 2019
Orbit: 538 x 1112 km, 38.8° (Epoch: 14 July)

Event Time Altitude Azimuth Distance (km) Brightness Sun altitude
Rises 20:27:39 0° 271° (W) 3,820 ? -8.3°
Reaches altitude 10° 20:33:39 10° 232° (SW) 2,715 ? -9.1°
Maximum altitude 20:34:27 10° 225° (SW) 2,675 ? -9.2°
Drops below altitude 10° 20:35:13 10° 218° (SW) 2,667 ? -9.3°
Enters shadow 20:40:20 - 180° (S) 3,335 ? -10.0°
Sets 20:40:41 0° 178° (S) 3,417 - -10.1°
